STARLINK-33980, 63930

Orbit data source: Space-Track

STARLINK-33980, 63930 is a payload satellite owned by SpaceX/Seattle (US) in LEO that was launched on Tue, 13 May 2025 UTC via an FALCON 9 launch vehicle from the Air Force Western Test Range (AFWTR). Payload-class satellites include a variety of spacecraft equipped with specific instruments for various scientific and technological missions. These include communications satellites like Starlink; space stations such as the ISS; scientific satellites like the Hubble; Earth observation satellites from companies like Planet Labs, Umbra, and HawkEye 360; GPS; miniature CubeSats for education and research; and military/defense satellites.

Loading next visibility...
Identifier
63930, 2025-098E
Orbit
LEO
Country
Flag of USUS
Related business
Manufacturer
SpaceX/Seattle
Mission
Operational Commercial Communications
Bus & Motor
STARLINK V2MO, Unknown motor
Mass
575 kg wet, ~530 kg dry
Launch date (UTC)
2025-05-13 (7 months ago)
Launch vehicle
FALCON 9
Launch site
Air Force Western Test Range (AFWTR)
Object type
Payload
Rocket body
Debris
Shape & HBR
Box + 2 Pan, 17.7 m
Radar Cross Section
36.964 m², Large (>1 m²)

Expand to show TLE details & history
Last TLE update: 19 hours ago

TLE from 19 hours ago
0 STARLINK-33980
1 63930U 25098E   25348.80758331  .00004234  00000-0  36247-3 0  9990
2 63930  70.0004 128.6491 0003413 270.9406  89.1362 14.98321144 33859
Epoch: 2025-12-14T19:22Z
TLE epoch observation values (Epoch: 2025-12-14T19:22:55.197Z)
Latitude
-0.00006°
Longitude
114.20389°
Altitude
574.472 km
Speed
7.574 km/s
True Right ascension
08h 34m 35s
True Declination
0° 00' 00"
Sunlit
Object was in full shadow at epoch
Visualization orbit readout
Latitude
Unknown
Longitude
Unknown
Altitude
Unknown
Speed
Unknown
Apparent Right ascension
Unknown
Apparent Declination
Unknown
Sunlit
N/A
Visualization observer readout
Local Sidereal Time
13:25:38
Azimuth
Unknown
Elevation
Unknown
Doppler factor
Unknown
Orbital elements
Apogee altitude
572.403 km
Perigee altitude
567.66 km
Semi-major axis
6,948.168 km
Eccentricity
0.00034
Inclination
70.0004°
RAAN
128.6491°
Arg. of periapsis
270.9406°
True anomaly
89.17531°
Mean anomaly
89.1362°
Eccentric anomaly
89.15575°
Mean motion
3.74747 °/min
Orbital period
96.06 mins
BSTAR
0.00036247
Loading maneuver chart data...
Computing Atmospheric mass density...
Loading historical data...
Loading historical data...
Loading historical data...
Loading historical data...
Loading historical data...
Loading historical data...
Loading historical data...

Documentation

Showing up to 5 results
|